9A7DI-13 Weather Reports


time (UTC)temp
C
wind
direction
speed
KPH
gust
KPH
rain 1hr
cm
rain 24hr
cm
rain mn
cm
humidity
%
barometer
mb
20260507153706 17 0.0 0.0 0.00 0.00 0.00 74 1022.5
20260507152705 17 0.0 0.0 0.00 0.00 0.00 71 1022.7
20260507151705 18 0.0 0.0 0.00 0.00 0.00 70 1022.6
20260507150705 17 0.0 0.0 0.00 0.00 0.00 71 1022.5
20260507145706 17 0.0 0.0 0.00 0.00 0.00 72 1022.5
20260507144706 17 0.0 0.0 0.00 0.00 0.00 70 1022.5
20260507143706 18 0.0 0.0 0.00 0.00 0.00 69 1022.7
20260507142706 18 0.0 0.0 0.00 0.00 0.00 69 1022.7
20260507141706 18 0.0 0.0 0.00 0.00 0.00 69 1022.9
20260507140706 18 0.0 0.0 0.00 0.00 0.00 67 1022.9
20260507135706 18 0.0 0.0 0.00 0.00 0.00 68 1023.0
20260507134706 18 0.0 0.0 0.00 0.00 0.00 67 1023.2
20260507133706 18 0.0 0.0 0.00 0.00 0.00 66 1023.1
20260507132706 18 0.0 0.0 0.00 0.00 0.00 67 1023.2
20260507131706 18 0.0 0.0 0.00 0.00 0.00 67 1023.3
20260507130706 18 0.0 0.0 0.00 0.00 0.00 68 1023.4
20260507125706 18 0.0 0.0 0.00 0.00 0.00 65 1023.5
20260507124706 18 0.0 0.0 0.00 0.00 0.00 67 1023.5
20260507123706 18 0.0 0.0 0.00 0.00 0.00 67 1023.5
20260507122706 18 0.0 0.0 0.00 0.00 0.00 67 1023.4
20260507121706 18 0.0 0.0 0.00 0.00 0.00 72 1023.4
20260507120706 18 0.0 0.0 0.00 0.00 0.00 71 1023.5
20260507115706 18 0.0 0.0 0.00 0.00 0.00 71 1023.6
20260507114706 18 0.0 0.0 0.00 0.00 0.00 71 1023.5
20260507113706 18 0.0 0.0 0.00 0.00 0.00 72 1023.5
20260507112706 17 0.0 0.0 0.00 0.00 0.00 71 1023.6
20260507111706 17 0.0 0.0 0.00 0.00 0.00 73 1023.6
20260507110706 17 0.0 0.0 0.00 0.00 0.00 74 1023.6
20260507105706 17 0.0 0.0 0.00 0.00 0.00 74 1023.6
20260507104706 17 0.0 0.0 0.00 0.00 0.00 74 1023.7
20260507103706 17 0.0 0.0 0.00 0.00 0.00 73 1023.8
20260507102706 17 0.0 0.0 0.00 0.00 0.00 73 1023.8
20260507101706 17 0.0 0.0 0.00 0.00 0.00 71 1023.9
20260507100706 17 0.0 0.0 0.00 0.00 0.00 71 1023.9
20260507095706 17 0.0 0.0 0.00 0.00 0.00 73 1023.9
20260507094706 17 0.0 0.0 0.00 0.00 0.00 72 1023.9
20260507093706 16 0.0 0.0 0.00 0.00 0.00 73 1023.9
20260507092706 16 0.0 0.0 0.00 0.00 0.00 73 1023.9
20260507091707 16 0.0 0.0 0.00 0.00 0.00 74 1023.8
20260507090706 16 0.0 0.0 0.00 0.00 0.00 77 1023.7
20260507085706 16 0.0 0.0 0.00 0.00 0.00 77 1023.5
20260507084706 16 0.0 0.0 0.00 0.00 0.00 78 1023.4
20260507083706 16 0.0 0.0 0.00 0.00 0.00 79 1023.3
20260507082706 16 0.0 0.0 0.00 0.00 0.00 76 1023.3
20260507081706 15 0.0 0.0 0.00 0.00 0.00 76 1023.2
20260507080706 15 0.0 0.0 0.00 0.00 0.00 84 1023.0
20260507075706 15 0.0 0.0 0.00 0.00 0.00 84 1022.9
20260507074706 15 0.0 0.0 0.00 0.00 0.00 84 1022.8
20260507073706 15 0.0 0.0 0.00 0.00 0.00 85 1022.7
20260507072706 15 0.0 0.0 0.00 0.00 0.00 82 1022.7
20260507071706 15 0.0 0.0 0.00 0.00 0.00 82 1022.6
20260507070706 15 0.0 0.0 0.00 0.00 0.00 82 1022.7
20260507065706 15 0.0 0.0 0.00 0.00 0.00 84 1022.8
20260507064706 15 0.0 0.0 0.00 0.00 0.00 86 1022.9
20260507063706 14 0.0 0.0 0.00 0.00 0.00 86 1022.7
20260507062706 14 0.0 0.0 0.00 0.00 0.00 87 1022.7
20260507061706 15 0.0 0.0 0.00 0.00 0.00 84 1022.8
20260507060706 15 0.0 0.0 0.00 0.00 0.00 82 1022.4
20260507055706 15 0.0 0.0 0.00 0.00 0.00 83 1022.2
20260507054706 15 0.0 0.0 0.00 0.00 0.00 82 1022.1
20260507053707 14 0.0 0.0 0.00 0.00 0.00 83 1022.2
20260507052706 14 0.0 0.0 0.00 0.00 0.00 83 1022.2
20260507051706 14 0.0 0.0 0.00 0.00 0.00 85 1022.3
20260507050706 14 0.0 0.0 0.00 0.00 0.00 84 1022.2
20260507045706 13 0.0 0.0 0.00 0.00 0.00 84 1022.2
20260507044706 13 0.0 0.0 0.00 0.00 0.00 84 1022.0
20260507043706 13 0.0 0.0 0.00 0.00 0.00 83 1021.8
20260507042706 13 0.0 0.0 0.00 0.00 0.00 84 1021.8
20260507041706 13 0.0 0.0 0.00 0.00 0.00 85 1021.6
20260507040706 13 0.0 0.0 0.00 0.00 0.00 86 1021.3
20260507035706 13 0.0 0.0 0.00 0.00 0.00 84 1021.2
20260507034706 13 0.0 0.0 0.00 0.00 0.00 84 1021.2
20260507033706 13 0.0 0.0 0.00 0.00 0.00 84 1021.2
20260507032707 13 0.0 0.0 0.00 0.00 0.00 85 1021.1
20260507031706 13 0.0 0.0 0.00 0.00 0.00 86 1021.0
20260507030706 13 0.0 0.0 0.00 0.00 0.00 86 1020.9
20260507025706 13 0.0 0.0 0.00 0.00 0.00 84 1021.0
20260507024706 13 0.0 0.0 0.00 0.00 0.00 84 1021.0
20260507023706 13 0.0 0.0 0.00 0.00 0.00 83 1020.9
20260507022706 13 0.0 0.0 0.00 0.00 0.00 83 1020.9
20260507021706 13 0.0 0.0 0.00 0.00 0.00 83 1020.8
20260507020706 13 0.0 0.0 0.00 0.00 0.00 83 1020.8
20260507015707 13 0.0 0.0 0.00 0.00 0.00 82 1020.8
20260507014706 13 0.0 0.0 0.00 0.00 0.00 82 1020.9
20260507013706 13 0.0 0.0 0.00 0.00 0.00 83 1020.9
20260507012706 13 0.0 0.0 0.00 0.00 0.00 82 1020.7
20260507011706 13 0.0 0.0 0.00 0.00 0.00 81 1020.8
20260507010706 13 0.0 0.0 0.00 0.00 0.00 81 1020.7
20260507005706 14 0.0 0.0 0.00 0.00 0.00 81 1020.5
20260507004706 14 0.0 0.0 0.00 0.00 0.00 81 1020.4
20260507003706 14 0.0 0.0 0.00 0.00 0.00 81 1020.5
20260507002706 14 0.0 0.0 0.00 0.00 0.00 81 1020.4
20260507001706 14 0.0 0.0 0.00 0.00 0.00 81 1020.4
20260507000706 15 0.0 0.0 0.00 0.00 0.00 81 1020.4
20260506235707 15 0.0 0.0 0.00 0.00 0.00 81 1020.5
20260506234707 15 0.0 0.0 0.00 0.00 0.00 80 1020.6
20260506233707 15 0.0 0.0 0.00 0.00 0.00 80 1020.5
20260506232707 16 0.0 0.0 0.00 0.00 0.00 81 1020.4
20260506231707 16 0.0 0.0 0.00 0.00 0.00 81 1020.6
20260506230707 16 0.0 0.0 0.00 0.00 0.00 81 1020.6
20260506225707 16 0.0 0.0 0.00 0.00 0.00 80 1020.7
20260506224707 16 0.0 0.0 0.00 0.00 0.00 80 1020.7
20260506223707 16 0.0 0.0 0.00 0.00 0.00 81 1020.6
20260506222707 16 0.0 0.0 0.00 0.00 0.00 80 1020.5
20260506221707 16 0.0 0.0 0.00 0.00 0.00 79 1020.5
20260506220707 16 0.0 0.0 0.00 0.00 0.00 79 1020.5
20260506215707 16 0.0 0.0 0.00 0.00 0.00 78 1020.6
20260506214707 17 0.0 0.0 0.00 0.00 0.00 78 1020.5
20260506213707 16 0.0 0.0 0.00 0.00 0.00 80 1020.5
20260506212707 16 0.0 0.0 0.00 0.00 0.00 82 1020.6
20260506211707 16 0.0 0.0 0.00 0.00 0.00 82 1020.8
20260506210707 17 0.0 0.0 0.00 0.00 0.00 79 1020.8
20260506205707 17 0.0 0.0 0.00 0.00 0.00 79 1020.6
20260506204707 17 0.0 0.0 0.00 0.00 0.00 80 1020.7
20260506203707 17 0.0 0.0 0.00 0.00 0.00 79 1020.6
20260506202707 16 0.0 0.0 0.00 0.00 0.00 81 1020.6
20260506201707 16 0.0 0.0 0.00 0.00 0.00 84 1020.6
20260506200707 16 0.0 0.0 0.00 0.00 0.00 83 1020.6
20260506195707 16 0.0 0.0 0.00 0.00 0.00 83 1020.6
20260506194707 16 0.0 0.0 0.00 0.00 0.00 83 1020.6
20260506193707 16 0.0 0.0 0.00 0.00 0.00 83 1020.6
20260506192707 17 0.0 0.0 0.00 0.00 0.00 82 1020.4
20260506191707 17 0.0 0.0 0.00 0.00 0.00 77 1020.2
20260506190707 17 0.0 0.0 0.00 0.00 0.00 76 1020.0
20260506185707 17 0.0 0.0 0.00 0.00 0.00 75 1019.9
20260506184707 17 0.0 0.0 0.00 0.00 0.00 75 1019.7
20260506183707 17 0.0 0.0 0.00 0.00 0.00 74 1019.8
20260506182707 18 0.0 0.0 0.00 0.00 0.00 73 1019.8
20260506181707 18 0.0 0.0 0.00 0.00 0.00 72 1019.6
20260506180707 18 0.0 0.0 0.00 0.00 0.00 72 1019.4
20260506175707 18 0.0 0.0 0.00 0.00 0.00 72 1019.3
20260506174707 18 0.0 0.0 0.00 0.00 0.00 71 1019.2
20260506173707 18 0.0 0.0 0.00 0.00 0.00 71 1019.2
20260506172707 19 0.0 0.0 0.00 0.00 0.00 70 1019.3
20260506171707 19 0.0 0.0 0.00 0.00 0.00 70 1019.0
20260506170707 20 0.0 0.0 0.00 0.00 0.00 70 1018.9
20260506165707 20 0.0 0.0 0.00 0.00 0.00 67 1018.7
20260506164707 20 0.0 0.0 0.00 0.00 0.00 67 1018.7
20260506163707 20 0.0 0.0 0.00 0.00 0.00 66 1018.7
20260506162707 20 0.0 0.0 0.00 0.00 0.00 65 1018.6
20260506161707 20 0.0 0.0 0.00 0.00 0.00 66 1018.7
20260506160707 20 0.0 0.0 0.00 0.00 0.00 68 1018.8
20260506155707 19 0.0 0.0 0.00 0.00 0.00 68 1019.0
20260506154707 20 0.0 0.0 0.00 0.00 0.00 62 1019.0